Meath Environmental Platform

Observations for Trim Market St

Time AQI Temp °C Hum % Pres Pa CO μg/m³ H₂S μg/m³ NO μg/m³ NO₂ μg/m³ O₃ μg/m³ SO₂ μg/m³ PM1 μg/m³ PM2.5 μg/m³ PM10 μg/m³
Thursday 9 July 2026
02:44 1 18.3 72 51,606 0 0 0 3.35 12.18 0 1.43 3.93 6.91
02:42 1 18.3 72 51,542 0 0 0 1.25 16.05 0 1.43 3.45 6.3
02:40 1 18.3 72 51,505 0 0 0 5.46 13.89 0 0.71 2.49 4.45
02:35 1 18.3 72 51,522 0 0 0 3.66 12.54 0 0.71 2.97 5.07
02:33 1 18.3 72 51,598 0 0 0 2.87 13.51 0 1.43 3.46 5.68
02:31 1 18.3 72 51,728 0 0 0 3.37 13.38 0 1.43 2.97 5.06
02:09 1 18.3 72 51,950 0 0 0 2.19 12.76 0 1.43 2.98 5.68
02:01 1 18.4 71 52,172 0 0 0 3.38 11.74 0 0.71 2.02 5.06
02:00 1 18.4 72 52,178 0 0 0 2.67 12.34 0 0 2.5 4.44
01:57 1 18.4 71 52,258 0 0 0 2.48 9.83 0 0.71 2.5 5.06
01:54 1 18.4 71 52,103 0 0 0 2.28 12.45 0 0 2.02 3.82
01:53 1 18.5 71 52,095 0 0 0 2.85 10.18 0 0 2.02 3.82
01:52 1 18.5 71 52,103 0 0 0 4.05 11.69 0 0.71 2.5 4.44
01:51 1 18.5 71 52,119 0 0 0 2.85 9.76 0 0.71 2.02 3.82
01:49 1 18.5 71 52,139 0 0 0 4.85 13.3 0 0.71 2.99 5.06
01:48 1 18.5 71 52,105 0 0 0 2.65 9.17 0 0.71 2.5 4.44
01:47 1 18.5 71 52,088 0 0 0 2.75 10 0 0.71 2.5 4.44
01:46 1 18.5 71 52,070 0 0 0 4.85 15.87 0 0.71 2.02 4.44
01:42 1 18.5 71 51,811 0 0 0 2.95 8.02 0 0 2.02 3.82
01:41 1 18.6 71 51,706 0 0 0 2.32 14.09 0 2.14 2.99 5.06